LKMT Weather Reports


Display with metric or nautical units.
time (UTC)temp
F
wind
direction
speed
MPH
gust
MPH
rain 1hr
in
rain 24hr
in
rain mn
in
humidity
%
barometer
mb
20260903090233 72 230 9.0 0.0 0.00 0.00 0.00 53 1020.0
20260903083231 70 0 5.0 0.0 0.00 0.00 0.00 60 1020.0
20260903082155 68 0 7.0 0.0 0.00 0.00 0.00 64
20260903080239 66 250 5.0 0.0 0.00 0.00 0.00 63 1020.0
20260903073231 64 240 5.0 0.0 0.00 0.00 0.00 72 1020.0
20260903072356 64 0 2.0 0.0 0.00 0.00 0.00 72
20260903070239 63 0 2.0 0.0 0.00 0.00 0.00 77 1020.0
20260903063230 61 0 2.0 0.0 0.00 0.00 0.00 82 1020.0
20260903062155 61 0 5.0 0.0 0.00 0.00 0.00 77
20260903060234 59 210 5.0 0.0 0.00 0.00 0.00 82 1020.0
20260903053223 57 230 6.0 0.0 0.00 0.00 0.00 87 1020.0
20260903052156 57 0 2.0 0.0 0.00 0.00 0.00 87
20260903050226 57 200 2.0 0.0 0.00 0.00 0.00 82 1020.0
20260903043224 55 0 1.0 0.0 0.00 0.00 0.00 93 1020.0
20260903042558 57 0 2.0 0.0 0.00 0.00 0.00 82
20260903040233 57 0 1.0 0.0 0.00 0.00 0.00 87 1020.0
20260903033224 57 260 3.0 0.0 0.00 0.00 0.00 87 1019.0
20260903032155 57 0 5.0 0.0 0.00 0.00 0.00 87
20260903030234 57 280 2.0 0.0 0.00 0.00 0.00 87 1020.0
20260903023224 59 190 6.0 0.0 0.00 0.00 0.00 82 1020.0
20260903022155 59 190 7.0 0.0 0.00 0.00 0.00 82
20260903020233 59 180 7.0 0.0 0.00 0.00 0.00 82 1020.0
20260903013224 61 170 5.0 0.0 0.00 0.00 0.00 77 1020.0
20260903012356 61 170 5.0 0.0 0.00 0.00 0.00 77
20260903010233 61 170 5.0 0.0 0.00 0.00 0.00 77 1020.0
20260903003224 61 200 5.0 0.0 0.00 0.00 0.00 77 1020.0
20260903002158 59 180 2.0 0.0 0.00 0.00 0.00 82
20260903000233 59 0 2.0 0.0 0.00 0.00 0.00 87 1020.0
20260902233224 59 230 6.0 0.0 0.00 0.00 0.00 82 1020.0
20260902232155 59 210 5.0 0.0 0.00 0.00 0.00 82
20260902230232 59 0 2.0 0.0 0.00 0.00 0.00 82 1020.0
20260902223223 61 0 2.0 0.0 0.00 0.00 0.00 77 1020.0
20260902222558 61 190 2.0 0.0 0.00 0.00 0.00 82
20260902220231 61 190 2.0 0.0 0.00 0.00 0.00 82 1020.0
20260902213224 61 0 0.0 0.0 0.00 0.00 0.00 82 1019.0
20260902212211 63 0 0.0 0.0 0.00 0.00 0.00 77
20260902210241 63 20 1.0 0.0 0.00 0.00 0.00 77 1019.0
20260902203231 63 130 1.0 0.0 0.00 0.00 0.00 77 1019.0
20260902202214 64 0 2.0 0.0 0.00 0.00 0.00 77
20260902200235 64 0 0.0 0.0 0.00 0.00 0.00 77 1019.0
20260902193223 64 0 1.0 0.0 0.00 0.00 0.00 77 1019.0
20260902192358 66 0 2.0 0.0 0.00 0.00 0.00 68
20260902190239 66 0 1.0 0.0 0.00 0.00 0.00 68 1019.0
20260902183231 68 100 3.0 0.0 0.00 0.00 0.00 64 1019.0
20260902182155 70 70 5.0 0.0 0.00 0.00 0.00 56
20260902180234 68 60 2.0 0.0 0.00 0.00 0.00 64 1019.0
20260902173230 72 0 2.0 0.0 0.00 0.00 0.00 53 1019.0
20260902172358 73 0 2.0 0.0 0.00 0.00 0.00 53
20260902170232 72 10 3.0 0.0 0.00 0.00 0.00 53 1019.0
20260902163230 72 360 3.0 0.0 0.00 0.00 0.00 53 1019.0
20260902162559 75 0 5.0 0.0 0.00 0.00 0.00 44
20260902160233 73 360 3.0 0.0 0.00 0.00 0.00 46 1019.0
20260902153230 75 240 9.0 0.0 0.00 0.00 0.00 41 1019.0
20260902152155 75 0 7.0 0.0 0.00 0.00 0.00 38
20260902150235 75 250 6.0 0.0 0.00 0.00 0.00 38 1019.0
20260902143231 77 240 12.0 0.0 0.00 0.00 0.00 33 1019.0
20260902142358 77 240 12.0 0.0 0.00 0.00 0.00 36
20260902140240 77 260 8.0 0.0 0.00 0.00 0.00 36 1019.0
20260902133230 77 250 12.0 0.0 0.00 0.00 0.00 33 1019.0
20260902132355 77 240 12.0 0.0 0.00 0.00 0.00 36
20260902130233 79 240 13.0 0.0 0.00 0.00 0.00 34 1020.0
20260902123231 77 240 14.0 0.0 0.00 0.00 0.00 36 1020.0
20260902122156 77 230 14.0 0.0 0.00 0.00 0.00 38
20260902120233 77 230 15.0 0.0 0.00 0.00 0.00 36 1020.0
20260902113230 77 240 14.0 0.0 0.00 0.00 0.00 38 1020.0
20260902112355 77 230 16.0 0.0 0.00 0.00 0.00 41
20260902110240 75 230 14.0 0.0 0.00 0.00 0.00 41 1020.0
20260902103231 75 220 14.0 0.0 0.00 0.00 0.00 41 1021.0
20260902102457 73 210 14.0 0.0 0.00 0.00 0.00 46
20260902100234 73 220 13.0 0.0 0.00 0.00 0.00 46 1021.0
20260902093231 73 220 13.0 0.0 0.00 0.00 0.00 46 1021.0
20260902092157 72 240 16.0 0.0 0.00 0.00 0.00 49